{"data":{"norad_id":64043,"intl_designator":"2025-102X","name":"STARLINK-34096","alt_names":[],"object_type":"PAYLOAD","status":"ACTIVE","operator":null,"country":"US","launch_date":"2025-05-16","launch_site_code":"AFWTR","launch_vehicle":null,"mission":null,"orbit_class":"UNKNOWN","rcs_meters":null,"size_class":null,"mass_kg":null,"dimensions":null,"purposes":["comms"],"wikipedia_slug":null,"has_3d_model":false,"image_url":null,"decayed_at":null,"tle_current":{"epoch":"2026-09-20T16:00:01.999584Z","epoch_age_seconds":129181,"freshness":"FRESH","line1":"1 64043U 25102X   26263.66668981  .00038171  00000+0  13268-2 0  9997","line2":"2 64043  70.0011 340.3097 0003263 271.0860  10.6618 15.29548653  5681","mean_motion":15.29548653,"eccentricity":0.0003263,"inclination_deg":70.0011,"raan_deg":340.3097,"arg_perigee_deg":271.086,"mean_anomaly_deg":10.6618,"bstar":0.0013268,"rev_number":568,"period_min":94.145419773058,"perigee_km":474.92368067799,"apogee_km":479.39744786843,"semimajor_km":6855.2975642732,"source":"CELESTRAK","updated_at":"2026-09-21T09:00:35.190317Z"}}}